This is the latest recevied weather packets stored in our database for station/object OE-11099. If no packets are shown the sender has not sent any weather packets the latest 10 day(s).
| Time | Temp. | Humidity | Pressure | Rain* | Wind** | Luminosity | Snow |
|---|---|---|---|---|---|---|---|
| 1787692279 | 18.89° C | 78% | 1015 hPa | 0 mm | - | 0 W/m² | - |
| 1787691905 | 18.89° C | 79% | 1015 hPa | 0 mm | - | 0 W/m² | - |
| 1787691306 | 18.89° C | 78% | 1015 hPa | 0 mm | - | 0 W/m² | - |
| 1787690479 | 18.89° C | 79% | 1015 hPa | 0 mm | - | 0 W/m² | - |
| 1787690106 | 18.89° C | 76% | 1014.9 hPa | 0 mm | - | 0 W/m² | - |
| 1787689505 | 18.89° C | 81% | 1015 hPa | 0 mm | - | 0 W/m² | - |
| 1787688679 | 18.89° C | 79% | 1014.8 hPa | 0 mm | - | 0 W/m² | - |
| 1787688305 | 18.89° C | 80% | 1014.9 hPa | 0 mm | - | 0 W/m² | - |
| 1787687706 | 19.44° C | 80% | 1014.9 hPa | 0 mm | - | 0 W/m² | - |
| 1787686879 | 19.44° C | 80% | 1014.7 hPa | 0 mm | - | 0 W/m² | - |
| 1787686505 | 19.44° C | 79% | 1014.7 hPa | 0 mm | - | 0 W/m² | - |
| 1787685906 | 19.44° C | 79% | 1014.4 hPa | 0 mm | - | 0 W/m² | - |
| 1787685079 | 19.44° C | 79% | 1014.4 hPa | 0 mm | - | 0 W/m² | - |
| 1787684706 | 19.44° C | 76% | 1014.3 hPa | 0 mm | - | 0 W/m² | - |
| 1787684106 | 19.44° C | 78% | 1014.1 hPa | 0 mm | - | 0 W/m² | - |
| 1787683279 | 19.44° C | 79% | 1014.1 hPa | 0 mm | - | 0 W/m² | - |
| 1787682306 | 20° C | 75% | 1013.8 hPa | 0 mm | - | 0 W/m² | - |
| 1787681479 | 20° C | 73% | 1013.8 hPa | 0 mm | - | 7 W/m² | - |
| 1787681106 | 20° C | 73% | 1013.6 hPa | 0 mm | - | 13 W/m² | - |
| 1787680506 | 20.56° C | 71% | 1013.3 hPa | 0 mm | - | 20 W/m² | - |
| 1787679679 | 20.56° C | 69% | 1013.2 hPa | 0 mm | - | 27 W/m² | - |
| 1787679306 | 21.11° C | 68% | 1013.1 hPa | 0 mm | - | 33 W/m² | - |
| 1787678706 | 21.11° C | 68% | 1013.1 hPa | 0 mm | - | 60 W/m² | - |
| 1787677879 | 21.11° C | 70% | 1012.9 hPa | 0 mm | - | 86 W/m² | - |
| 1787677506 | 21.67° C | 66% | 1012.7 hPa | 0 mm | - | 186 W/m² | - |
* Rain latest hour (hover to see other rain measurements)
** Current wind speed in m/s (hover to see current wind gust speed)